TimeCST,TemperatureF,Dew PointF,Humidity,Sea Level PressureIn,VisibilityMPH,Wind Direction,Wind SpeedMPH,Gust SpeedMPH,PrecipitationIn,Events,Conditions,WindDirDegrees,DateUTC
12:53 AM,25.0,12.0,58,30.24,10.0,NNW,5.8,-,N/A,,Overcast,330,2011-12-22 06:53:00
1:53 AM,25.0,12.0,58,30.27,10.0,NNW,8.1,-,N/A,,Overcast,330,2011-12-22 07:53:00
2:53 AM,24.1,12.9,62,30.31,10.0,NNW,8.1,-,N/A,,Overcast,330,2011-12-22 08:53:00
3:53 AM,24.1,12.9,62,30.31,10.0,NW,3.5,-,N/A,,Overcast,310,2011-12-22 09:53:00
4:34 AM,23.0,12.2,63,30.28,10.0,WNW,3.5,-,N/A,,Overcast,290,2011-12-22 10:34:00
4:53 AM,23.0,12.9,65,30.32,10.0,West,3.5,-,N/A,,Overcast,280,2011-12-22 10:53:00
5:53 AM,21.0,10.0,63,30.34,10.0,WNW,9.2,-,N/A,,Overcast,300,2011-12-22 11:53:00
6:09 AM,19.4,10.4,68,30.29,10.0,WNW,10.4,-,N/A,,Overcast,300,2011-12-22 12:09:00
6:43 AM,17.6,8.6,68,30.30,10.0,WNW,5.8,-,N/A,,Partly Cloudy,300,2011-12-22 12:43:00
6:53 AM,16.0,7.0,68,30.35,10.0,WNW,4.6,-,N/A,,Partly Cloudy,290,2011-12-22 12:53:00
8:53 AM,18.0,9.0,68,30.35,10.0,WSW,6.9,-,N/A,,Overcast,240,2011-12-22 14:53:00
10:53 AM,21.9,10.9,63,30.36,10.0,WSW,10.4,-,N/A,,Overcast,240,2011-12-22 16:53:00
12:53 PM,30.0,14.0,51,30.31,10.0,WSW,10.4,-,N/A,,Clear,240,2011-12-22 18:53:00
1:53 PM,32.0,14.0,48,30.29,10.0,WSW,12.7,-,N/A,,Partly Cloudy,240,2011-12-22 19:53:00
2:53 PM,33.1,15.1,48,30.27,10.0,WSW,12.7,-,N/A,,Clear,250,2011-12-22 20:53:00
3:53 PM,32.0,15.1,50,30.27,10.0,West,10.4,-,N/A,,Clear,270,2011-12-22 21:53:00
4:53 PM,26.1,12.9,58,30.27,10.0,West,6.9,-,N/A,,Clear,270,2011-12-22 22:53:00
5:53 PM,24.1,12.9,62,30.27,10.0,SW,4.6,-,N/A,,Clear,220,2011-12-22 23:53:00
6:24 PM,24.8,12.2,59,30.22,10.0,SW,5.8,-,N/A,,Clear,220,2011-12-23 00:24:00
6:53 PM,19.9,12.0,71,30.27,10.0,SSW,8.1,-,N/A,,Clear,200,2011-12-23 00:53:00
7:53 PM,21.0,12.0,68,30.23,10.0,South,10.4,-,N/A,,Clear,190,2011-12-23 01:53:00
8:53 PM,21.0,12.9,71,30.21,10.0,South,9.2,-,N/A,,Clear,190,2011-12-23 02:53:00
9:53 PM,21.0,12.9,71,30.18,10.0,South,10.4,-,N/A,,Clear,190,2011-12-23 03:53:00
10:53 PM,24.1,15.1,69,30.15,10.0,SSW,11.5,-,N/A,,Overcast,200,2011-12-23 04:53:00
11:53 PM,24.1,14.0,65,30.12,10.0,SSW,12.7,-,N/A,,Clear,200,2011-12-23 05:53:00